Detroit, MI

4:59 PM EDT on September 22, 2017 (GMT -0400)
Detroit City

Weather History for KDET - December, 2011

Change the Weather History Date:

Tuesday, December 6, 2011

  Actual Average Record
Temperature  
Mean Temperature 34 °F -  
Max Temperature 37 °F 39 °F 68 °F (1998)
Min Temperature 32 °F 27 °F 10 °F (1958)
Degree Days  
Heating Degree Days 30    
Moisture  
Dew Point 30 °F    
Average Humidity 85    
Maximum Humidity 100    
Minimum Humidity 75    
Precipitation  
Precipitation 0.00 in - - ()
Sea Level Pressure  
Sea Level Pressure 30.17 in    
Wind  
Wind Speed 8 mph (North)    
Max Wind Speed 13 mph    
Max Gust Speed 18 mph    
Visibility 10 miles    
Events      
Averages and records for this station are not official NWS values.
T = Trace of Precipitation, MM = Missing Value Source: NWS Daily Summary

Daily Weather History Graph

Daily Weather History Graph

Search for Another Location

Airport or City:

Trip Planner

Search our weather history database for the weather conditions in past years. The results will help you decide how hot, cold, wet, or windy it might be!

Date:

Astronomy

Dec. 06, 2011 Rise Set
Actual Time 7:46 AM EST 4:59 PM EST
Civil Twilight 7:14 AM EST 5:30 PM EST
Nautical Twilight 6:39 AM EST 6:06 PM EST
Astronomical Twilight 6:05 AM EST 6:40 PM EST
Moon 2:28 PM EST (12/6) 4:01 AM EST (12/6)
Length of Visible Light 10h 16m
Length of Day
9h 12m
Waxing Gibbous, 86% of the Moon is Illuminated
Dec 6
Waxing Gibbous
Dec 10
Full
Dec 17
Last Quarter
Dec 24
New
Jan 1
First Quarter

Hourly Weather History & Observations

Time (EST) Temp. Windchill Dew Point Humidity Pressure Visibility Wind Dir Wind Speed Gust Speed Precip Events Conditions
12:08 AM 32.0 °F 24.8 °F 32.0 °F 100% 30.20 in 10.0 mi North 8.1 mph - N/A   Mostly Cloudy
12:53 AM 33.1 °F 26.1 °F 30.9 °F 92% 30.21 in 10.0 mi North 8.1 mph 16.1 mph N/A   Overcast
1:53 AM 33.1 °F 26.1 °F 30.9 °F 92% 30.22 in 10.0 mi North 8.1 mph - N/A   Overcast
2:53 AM 33.1 °F 26.1 °F 30.0 °F 89% 30.22 in 10.0 mi North 8.1 mph - N/A   Overcast
3:53 AM 33.1 °F 26.1 °F 30.0 °F 89% 30.21 in 10.0 mi North 8.1 mph - N/A   Overcast
4:53 AM 32.0 °F 25.6 °F 30.0 °F 92% 30.21 in 10.0 mi North 6.9 mph - N/A   Overcast
5:53 AM 32.0 °F 24.2 °F 30.0 °F 92% 30.21 in 10.0 mi North 9.2 mph - N/A   Overcast
6:53 AM 32.0 °F 24.2 °F 30.0 °F 92% 30.21 in 10.0 mi North 9.2 mph - N/A   Overcast
7:53 AM 32.0 °F 24.2 °F 30.0 °F 92% 30.21 in 10.0 mi North 9.2 mph - N/A   Overcast
8:08 AM 32.0 °F 23.6 °F 30.2 °F 93% 30.19 in 10.0 mi North 10.4 mph - N/A   Overcast
8:53 AM 33.1 °F 26.9 °F 30.0 °F 89% 30.22 in 10.0 mi North 6.9 mph - N/A   Overcast
9:24 AM 33.8 °F 26.4 °F 30.2 °F 87% 30.20 in 10.0 mi North 9.2 mph - N/A   Overcast
9:53 AM 33.1 °F 27.7 °F 30.0 °F 89% 30.23 in 10.0 mi North 5.8 mph - N/A   Overcast
10:44 AM 33.8 °F 27.7 °F 30.2 °F 87% 30.20 in 10.0 mi North 6.9 mph - N/A   Overcast
10:53 AM 34.0 °F 27.2 °F 30.9 °F 89% 30.22 in 10.0 mi North 8.1 mph - N/A   Overcast
11:53 AM 35.1 °F 28.6 °F 30.9 °F 85% 30.19 in 10.0 mi North 8.1 mph - N/A   Overcast
12:53 PM 36.0 °F 28.5 °F 30.9 °F 82% 30.17 in 10.0 mi North 10.4 mph - N/A   Overcast
1:41 PM 37.4 °F 29.8 °F 30.2 °F 75% 30.13 in 10.0 mi North 11.5 mph - N/A   Overcast
1:53 PM 37.9 °F 30.0 °F 30.9 °F 76% 30.14 in 10.0 mi North 12.7 mph - N/A   Overcast
2:14 PM 37.4 °F 31.4 °F 30.2 °F 75% 30.10 in 10.0 mi North 8.1 mph 18.4 mph N/A   Mostly Cloudy
2:21 PM 37.4 °F 29.8 °F 30.2 °F 75% 30.10 in 10.0 mi North 11.5 mph 17.3 mph N/A   Mostly Cloudy
2:53 PM 37.0 °F 31.0 °F 30.9 °F 79% 30.13 in 10.0 mi NNE 8.1 mph - N/A   Overcast
3:53 PM 37.0 °F 30.4 °F 30.9 °F 79% 30.14 in 10.0 mi North 9.2 mph - N/A   Overcast
4:53 PM 36.0 °F 31.1 °F 30.0 °F 79% 30.14 in 10.0 mi North 5.8 mph - N/A   Overcast
5:53 PM 36.0 °F 30.3 °F 28.9 °F 76% 30.14 in 10.0 mi North 6.9 mph - N/A   Overcast
6:53 PM 35.1 °F 30.1 °F 28.0 °F 76% 30.14 in 10.0 mi North 5.8 mph - N/A   Overcast
7:53 PM 35.1 °F 31.0 °F 28.9 °F 78% 30.15 in 10.0 mi North 4.6 mph - N/A   Overcast
8:53 PM 35.1 °F 30.1 °F 28.9 °F 78% 30.14 in 10.0 mi North 5.8 mph - N/A   Overcast
9:53 PM 33.1 °F 28.7 °F 28.9 °F 85% 30.10 in 10.0 mi North 4.6 mph - N/A   Scattered Clouds
10:53 PM 33.1 °F 28.7 °F 28.9 °F 85% 30.10 in 10.0 mi NNW 4.6 mph - N/A   Overcast
11:53 PM 33.8 °F 29.6 °F 28.4 °F 81% 30.09 in 10.0 mi NW 4.6 mph - N/A   Overcast